VOCIVOCL

Guest
Details From VOCI - COCHIN INTL
To VOCL - CALICUT
Flight Number -
Tags decoded
Created
Modified
Stats Distance 65 nm / 120 km
Max Altitude 0 ft / 0 m
Waypoints 3
Social Downloads 3
Likes 0
Share VATSIM

Download

Looking for another format? Having issues loading an existing format? Contact us
Advertisement - Login to hide

Notes

Requested: VOCI CLC VOCL

Route

VOCI CLC VOCL

ID Type Via Altitude Latitude Longitude Leg Dist Tot Dist Heading (true) Name
O VOCI APT - 0 ft / 0 m 10.15200˚ 76.40191˚ - 0 nm - COCHIN INTL
CLC VOR - 0 ft / 0 m 11.13515˚ 75.95485˚ 64 nm 64 nm 336° / 336° CALICUT VOR-DME
O VOCL APT - 0 ft / 0 m 11.13684˚ 75.95530˚ 0 nm 64 nm 15° / 15° CALICUT

Altitude Profile

Advertisement - Login to hide

VOCI

Details ICAO VOCI (COK)
Name COCHIN INTL
Region India
Timezone Asia/Kolkata (UTC+5.5)
Stats Elevation 30 ft / 9 m (AMSL)
Location 10.151996° 76.401905°
Runways 1
Magnetic Variation 1.622° W

METAR

VOCI 270830Z 20005KT 6000 SCT015 SCT020 33/26 Q1002 NOSIG

Decode

TAF

TAF TAF VOCI 270500Z 2706/2812 29005KT 5000 HZ SCT015 BKN080 TEMPO 2710/2714 3000 TSRA/RA SCT010 FEW025CB BKN080 BECMG 2716/2717 00000KT 4000 HZ TEMPO 2722/2802 2000 BR SCT012 BKN080 BECMG 2805/2806 29005KT 5000 HZ TEMPO 2808/2812 3000 TSRA/RA SCT010 FEW025CB BKN080

Decode

Departure Runways

ID Width Length Bearing (true) Bearing (mag) Surface Threshold Offset Overrun Length
09 148 ft / 45 m 11,139 ft / 3,395 m 87.86° 89.48° Asphalt 0 ft / 0 m 195 ft / 59 m
27 148 ft / 45 m 11,139 ft / 3,395 m 267.87° 269.49° Asphalt 0 ft / 0 m 195 ft / 59 m

VOCL

Details ICAO VOCL (CCJ)
Name CALICUT
Region India
Timezone Asia/Kolkata (UTC+5.5)
Stats Elevation 342 ft / 104 m (AMSL)
Location 11.136840° 75.955300°
Runways 1
Magnetic Variation 1.460° W

METAR

VOCL 270830Z 22005KT 6000 FEW015 FEW025CB BKN080 32/25 Q1003 NOSIG

Decode

TAF

TAF VOCL 270500Z 2706/2812 25010KT 6000 SCT012 BKN080 TEMPO 2710/2714 3000 TSRA/RA SCT010 FEW025CB BKN080 TEMPO 2722/2802 3000 BR SCT012 BKN080 BECMG 2804/2805 27010KT 6000 TEMPO 2810/2812 3000 TSRA/RA SCT010 FEW025CB BKN080

Decode

Destination Runways

ID Width Length Bearing (true) Bearing (mag) Surface Threshold Offset Overrun Length
10 150 ft / 46 m 9,384 ft / 2,860 m 101.05° 102.51° Asphalt 0 ft / 0 m 190 ft / 58 m
28 150 ft / 46 m 9,384 ft / 2,860 m 281.06° 282.52° Asphalt 0 ft / 0 m 190 ft / 58 m

Approach Navaids

Runway Type Ident Frequency Range Bearing (true) Bearing (mag) Slope Elevation
28 Localiser ICAC 109.50 MHz 18 nm / 33 km 275.76° 277.22° - 311 ft / 95 m (AMSL)
28 Glidescope ICAC 109.50 MHz 10 nm / 19 km 281.06° 282.52° 3.20° 320 ft / 98 m (AMSL)
28 DME ICAC 109.50 MHz 18 nm / 33 km - - - 342 ft / 104 m (AMSL)

Popular Alternatives